Flag for Micronesia Weather past 2 weeks in Colonia, Yap, Micronesia

Now
77 °F

Partly cloudy.


Feels Like: 79 °F
Forecast: 78 / 90 °F
Wind: 6 mph from North

Location: Yap Island


UV Index: 10 (Very high)

Visibility: 12 mi


Pressure: 29.77 "Hg

Humidity: 85%

Dew point: 72 °F

Location of ColoniaLocation

Historic Weather in Colonia

°F

Colonia temperature yesterday

Maximum temperature yesterday: 89 °F (at 1:50 PM)
Minimum temperature yesterday: 78 °F (at 5:52 AM)
Average temperature yesterday: 82 °F

Past Weeks' High & Low Weather Summary

 TemperatureHumidityPressure
High96 °F (Apr 18, 12:51 PM)94% (Apr 13, 5:52 AM)29.89 "Hg (Apr 13, 5:52 AM)
Low75 °F (Apr 11, 12:50 PM)54% (Apr 18, 12:51 PM)29.68 "Hg (Apr 20, 3:50 PM)
Average82 °F82%29.80 "Hg
* Reported Apr 10 4:50 AM — Apr 25 4:50 AM, Colonia, Weather by CustomWeather, © 2014

Note: Actual official high and low records may vary slightly from our data, if they occured in-between our weather recording intervals... More about our weather records

Advertising

Historic Weather Conditions — Data for Previous 24 hours

 ConditionsComfort  
Time TempWeatherWind HumidityBarometerVisibility
4:50 AM
Apr 25
77 °FPartly cloudy.6 mph85%29.77 "Hg12 mi
3:50 AM78 °FPartly cloudy.8 mph82%29.78 "Hg12 mi
2:50 AM79 °FPartly cloudy.8 mph80%29.80 "Hg12 mi
1:51 AM80 °FPartly cloudy.8 mph81%29.81 "Hg12 mi
12:52 AM81 °FPartly cloudy.6 mph80%29.83 "Hg12 mi
11:52 PM
Apr 24
80 °FPartly cloudy.8 mph79%29.85 "Hg12 mi
10:50 PM81 °FPartly cloudy.7 mph78%29.86 "Hg12 mi
9:50 PM81 °FPartly cloudy.7 mph78%29.85 "Hg12 mi
8:50 PM81 °FPassing clouds.6 mph77%29.82 "Hg12 mi
7:50 PM81 °FScattered clouds.6 mph76%29.83 "Hg12 mi
6:51 PM82 °FScattered clouds.6 mph73%29.81 "Hg12 mi
5:51 PM86 °FPassing clouds.7 mph64%29.78 "Hg12 mi
4:53 PM88 °FScattered clouds.8 mph61%29.77 "Hg12 mi
3:50 PM88 °FPassing clouds.10 mph61%29.78 "Hg12 mi
2:55 PM88 °FScattered clouds.8 mph62%29.79 "Hg12 mi
1:50 PM89 °FPassing clouds.12 mph62%29.80 "Hg12 mi
12:55 PM87 °FBroken clouds.12 mph70%29.83 "Hg12 mi
11:52 AM88 °FScattered clouds.7 mph71%29.85 "Hg12 mi
10:50 AM84 °FScattered clouds.8 mph81%29.85 "Hg12 mi
9:51 AM80 °FScattered showers. Broken clouds.6 mph87%29.86 "Hg12 mi
8:53 AM81 °FBroken clouds.9 mph84%29.85 "Hg12 mi
7:53 AM81 °FBroken clouds.10 mph87%29.84 "Hg12 mi
6:52 AM79 °FOvercast.9 mph89%29.82 "Hg12 mi
5:52 AM78 °FSprinkles. Mostly cloudy.8 mph88%29.81 "Hg9 mi
Weather by CustomWeather, © 2014

See weather overview